Location: Praha
(50.0830°N, 14.4670°E)
Time: 14:52:57
(UTC+01:00)

ISS - Pass Details

Date: 22 March 2019
Orbit: 408 x 411 km, 51.6° (Epoch: 25 March)

Event Time Altitude Azimuth Distance (km) Brightness Sun altitude
Rises 19:35:14 0° 213° (SSW) 2,325 0.2 -13.1°
Reaches altitude 10° 19:37:35 10° 198° (SSW) 1,467 -1.0 -13.4°
Maximum altitude 19:40:14 23° 144° (SE) 927 -2.5 -13.8°
Enters shadow 19:40:17 23° 142° (SE) 928 -2.5 -13.8°
